Weather History for Ladysmith, WI

Change the Weather History Date:

Wednesday, November 6, 2013

  Actual Average (KRPD) Record (KRPD)
Temperature  
Mean Temperature 32 °F -  
Max Temperature 36 °F 42 °F 66 °F (2001)
Min Temperature 27 °F 28 °F 12 °F (2003)
Degree Days  
Heating Degree Days 34    
Moisture  
Dew Point 29 °F    
Average Humidity 87    
Maximum Humidity 97    
Minimum Humidity 71    
Precipitation  
Precipitation 0.03 in - - ()
Sea Level Pressure  
Sea Level Pressure 30.01 in    
Wind  
Wind Speed 10 mph (NW)    
Max Wind Speed 15 mph    
Max Gust Speed 21 mph    
Visibility 9 miles    
Events Rain , Snow    
Averages and records for this station are not official NWS values.
T = Trace of Precipitation, MM = Missing Value Source: NWS Daily Summary

Daily Weather History Graph

Daily Weather History Graph

Search for Another Location

Airport:

Trip Planner

Search our weather history database for the weather conditions in past years. The results will help you decide how hot, cold, wet, or windy it might be!

Date:

Astronomy

Nov. 06, 2013 Rise Set
Actual Time 6:50 AM CST 4:43 PM CST
Civil Twilight 6:19 AM CST 5:15 PM CST
Nautical Twilight 5:44 AM CST 5:50 PM CST
Astronomical Twilight 5:09 AM CST 6:25 PM CST
Moon 10:10 AM CST (11/6) 7:44 PM CST (11/6)
Length of Visible Light 10h 55m
Length of Day
9h 53m
Waxing Crescent, 14% of the Moon is Illuminated
Nov 6
Waxing Crescent
Nov 9
First Quarter
Nov 17
Full
Nov 25
Last Quarter
Dec 2
New

Hourly Weather History & Observations

Time (CST) Temp. Windchill Dew Point Humidity Pressure Visibility Wind Dir Wind Speed Gust Speed Precip Events Conditions
12:15 AM 33.8 °F 27.0 °F 32.9 °F 96% 29.95 in 3.0 mi North 8.1 mph - 0.01 in Snow Light Snow
12:35 AM 33.8 °F 26.4 °F 32.9 °F 96% 29.95 in 7.0 mi North 9.2 mph - 0.02 in Snow Light Snow
12:55 AM 33.8 °F 27.0 °F 33.1 °F 97% 29.95 in 7.0 mi North 8.1 mph - 0.02 in Rain Light Rain
1:15 AM 33.8 °F 25.8 °F 33.1 °F 97% 29.94 in 4.0 mi North 10.4 mph - 0.01 in Rain Light Rain
1:35 AM 33.8 °F 25.8 °F 32.9 °F 96% 29.94 in 4.0 mi North 10.4 mph - 0.01 in Snow Light Snow
1:55 AM 33.8 °F 25.3 °F 32.9 °F 96% 29.94 in 7.0 mi North 11.5 mph 17.3 mph 0.01 in Snow Light Snow
2:15 AM 33.8 °F 25.3 °F 32.9 °F 96% 29.94 in 5.0 mi NNW 11.5 mph - N/A Snow Light Snow
2:35 AM 33.8 °F 25.3 °F 32.9 °F 96% 29.94 in 7.0 mi NNW 11.5 mph 18.4 mph N/A Snow Light Snow
2:55 AM 33.8 °F 24.8 °F 32.9 °F 96% 29.93 in 5.0 mi NNW 12.7 mph - N/A Snow Light Snow
3:15 AM 33.8 °F 24.8 °F 32.7 °F 96% 29.92 in 4.0 mi NNW 12.7 mph - N/A Snow Light Snow
3:35 AM 33.8 °F 23.9 °F 32.5 °F 95% 29.92 in 5.0 mi NNW 15.0 mph - N/A Snow Light Snow
3:55 AM 33.8 °F 25.8 °F 32.5 °F 95% 29.92 in 4.0 mi NNW 10.4 mph - N/A Snow Light Snow
4:15 AM 33.6 °F 24.6 °F 32.5 °F 96% 29.93 in 3.0 mi NNW 12.7 mph - N/A Snow Light Snow
4:35 AM 33.8 °F 24.3 °F 32.5 °F 95% 29.93 in 3.0 mi NNW 13.8 mph 19.6 mph N/A Snow Light Snow
4:55 AM 33.4 °F 23.9 °F 32.4 °F 96% 29.94 in 2.0 mi NNW 13.8 mph - N/A Snow Light Snow
5:15 AM 33.3 °F 24.6 °F 32.2 °F 96% 29.94 in 4.0 mi NW 11.5 mph - N/A Snow Light Snow
5:35 AM 33.3 °F 24.1 °F 32.2 °F 96% 29.93 in 4.0 mi NNW 12.7 mph - N/A Snow Light Snow
5:55 AM 33.4 °F 23.9 °F 32.0 °F 94% 29.93 in 5.0 mi NNW 13.8 mph - N/A Snow Light Snow
6:15 AM 33.3 °F 24.6 °F 32.0 °F 95% 29.93 in 7.0 mi NNW 11.5 mph - N/A Snow Light Snow
6:35 AM 33.1 °F 24.9 °F 32.0 °F 96% 29.93 in 10.0 mi NNW 10.4 mph - N/A Snow Light Snow
6:55 AM 33.1 °F 23.9 °F 32.0 °F 96% 29.94 in 10.0 mi NNW 12.7 mph - N/A Snow Light Snow
7:15 AM 32.9 °F 22.8 °F 31.6 °F 95% 29.92 in 10.0 mi NNW 15.0 mph - N/A   Overcast
7:35 AM 32.9 °F 24.1 °F 31.6 °F 95% 29.93 in 10.0 mi NNW 11.5 mph - N/A   Overcast
7:55 AM 32.9 °F 24.7 °F 31.6 °F 95% 29.94 in 10.0 mi NNW 10.4 mph - N/A   Overcast
8:15 AM 32.9 °F 24.7 °F 31.6 °F 95% 29.94 in 10.0 mi NNW 10.4 mph - N/A   Overcast
8:35 AM 32.9 °F 24.1 °F 31.3 °F 94% 29.95 in 10.0 mi NW 11.5 mph - N/A   Scattered Clouds
8:55 AM 33.1 °F 24.4 °F 30.9 °F 92% 29.95 in 10.0 mi NW 11.5 mph - N/A   Clear
9:15 AM 32.9 °F 23.7 °F 30.2 °F 90% 29.96 in 10.0 mi NW 12.7 mph - N/A   Scattered Clouds
9:35 AM 32.9 °F 25.3 °F 30.2 °F 90% 29.97 in 10.0 mi NW 9.2 mph 20.7 mph N/A   Scattered Clouds
9:55 AM 32.9 °F 23.2 °F 30.0 °F 89% 29.97 in 10.0 mi NW 13.8 mph - N/A   Mostly Cloudy
10:15 AM 32.9 °F 23.2 °F 29.8 °F 88% 29.98 in 10.0 mi NW 13.8 mph - N/A   Overcast
10:35 AM 32.9 °F 23.7 °F 30.0 °F 89% 29.98 in 10.0 mi NW 12.7 mph 17.3 mph N/A   Overcast
10:55 AM 32.9 °F 23.7 °F 29.8 °F 88% 29.99 in 10.0 mi NW 12.7 mph - N/A   Overcast
11:15 AM 32.9 °F 23.7 °F 30.2 °F 90% 29.99 in 10.0 mi NW 12.7 mph - N/A   Overcast
11:35 AM 33.8 °F 24.8 °F 29.3 °F 84% 29.99 in 10.0 mi NW 12.7 mph 18.4 mph N/A   Overcast
11:55 AM 34.2 °F 25.7 °F 28.9 °F 81% 29.99 in 10.0 mi NW 11.5 mph - N/A   Mostly Cloudy
12:15 PM 34.0 °F 24.2 °F 28.8 °F 81% 29.99 in 10.0 mi WNW 15.0 mph - N/A   Scattered Clouds
12:35 PM 34.7 °F 27.5 °F 28.0 °F 77% 29.99 in 10.0 mi WNW 9.2 mph - N/A   Scattered Clouds
12:55 PM 35.1 °F 26.4 °F 29.1 °F 79% 29.99 in 10.0 mi West 12.7 mph - N/A   Mostly Cloudy
1:15 PM 36.0 °F 28.0 °F 29.3 °F 77% 30.00 in 10.0 mi WNW 11.5 mph - N/A   Mostly Cloudy
1:35 PM 34.3 °F 25.9 °F 27.5 °F 76% 30.00 in 10.0 mi NW 11.5 mph - N/A   Scattered Clouds
1:55 PM 35.8 °F 26.9 °F 28.6 °F 75% 30.01 in 10.0 mi West 13.8 mph 17.3 mph N/A   Scattered Clouds
2:15 PM 36.0 °F 28.0 °F 27.9 °F 72% 30.01 in 10.0 mi NW 11.5 mph - N/A   Scattered Clouds
2:35 PM 36.5 °F 29.2 °F 28.6 °F 73% 30.01 in 10.0 mi WNW 10.4 mph 16.1 mph N/A   Scattered Clouds
2:55 PM 36.0 °F 27.1 °F 27.5 °F 71% 30.02 in 10.0 mi NW 13.8 mph 20.7 mph N/A   Scattered Clouds
3:15 PM 35.8 °F 26.9 °F 27.1 °F 71% 30.03 in 10.0 mi WNW 13.8 mph - N/A   Clear
3:35 PM 35.6 °F 26.6 °F 27.7 °F 73% 30.04 in 10.0 mi West 13.8 mph 19.6 mph N/A   Clear
3:55 PM 35.1 °F 26.9 °F 27.0 °F 72% 30.04 in 10.0 mi WNW 11.5 mph 18.4 mph N/A   Clear
4:15 PM 34.7 °F 27.5 °F 27.1 °F 74% 30.04 in 10.0 mi West 9.2 mph - N/A   Clear
4:35 PM 33.6 °F 26.8 °F 27.0 °F 77% 30.05 in 10.0 mi West 8.1 mph - N/A   Clear
4:55 PM 32.9 °F 25.3 °F 26.6 °F 78% 30.05 in 10.0 mi West 9.2 mph - N/A   Clear
5:15 PM 32.2 °F 25.8 °F 26.6 °F 80% 30.06 in 10.0 mi West 6.9 mph - N/A   Clear
5:35 PM 32.4 °F 26.0 °F 25.7 °F 76% 30.06 in 10.0 mi WSW 6.9 mph - N/A   Clear
5:55 PM 32.2 °F 25.8 °F 25.7 °F 77% 30.07 in 10.0 mi West 6.9 mph - N/A   Clear
6:15 PM 32.0 °F 26.4 °F 26.2 °F 79% 30.07 in 10.0 mi West 5.8 mph - N/A   Clear
6:35 PM 30.7 °F 26.0 °F 25.9 °F 82% 30.08 in 10.0 mi West 4.6 mph - N/A   Clear
6:55 PM 30.0 °F 24.1 °F 25.9 °F 85% 30.08 in 10.0 mi West 5.8 mph - N/A   Clear
7:15 PM 29.7 °F 23.7 °F 26.2 °F 87% 30.08 in 10.0 mi West 5.8 mph - N/A   Clear
7:35 PM 29.1 °F 25.4 °F 25.3 °F 86% 30.09 in 10.0 mi WSW 3.5 mph - N/A   Clear
7:55 PM 30.0 °F 25.2 °F 26.1 °F 85% 30.09 in 10.0 mi West 4.6 mph - N/A   Clear
8:15 PM 29.5 °F 23.4 °F 25.9 °F 86% 30.10 in 10.0 mi West 5.8 mph - N/A   Scattered Clouds
8:35 PM 29.1 °F 23.0 °F 25.7 °F 87% 30.11 in 10.0 mi West 5.8 mph - N/A   Scattered Clouds
8:55 PM 29.5 °F 24.5 °F 25.2 °F 84% 30.12 in 10.0 mi NW 4.6 mph - N/A   Scattered Clouds
9:15 PM 30.0 °F 26.5 °F 26.2 °F 86% 30.12 in 10.0 mi NW 3.5 mph - N/A   Mostly Cloudy
9:35 PM 29.3 °F 24.3 °F 25.3 °F 85% 30.12 in 10.0 mi WNW 4.6 mph - N/A   Mostly Cloudy
9:55 PM 29.3 °F - 25.5 °F 86% 30.12 in 10.0 mi Calm Calm - N/A   Mostly Cloudy
10:15 PM 28.9 °F 25.2 °F 24.1 °F 82% 30.13 in 10.0 mi NNW 3.5 mph - N/A   Scattered Clouds
10:35 PM 28.8 °F - 23.5 °F 81% 30.12 in 10.0 mi Calm Calm - N/A   Clear
10:55 PM 27.9 °F 24.0 °F 23.5 °F 84% 30.13 in 10.0 mi West 3.5 mph - N/A   Mostly Cloudy
11:15 PM 27.7 °F - 23.5 °F 84% 30.13 in 10.0 mi Calm Calm - N/A   Mostly Cloudy
11:35 PM 27.1 °F - 23.5 °F 86% 30.13 in 10.0 mi Calm Calm - N/A   Scattered Clouds
11:55 PM 28.2 °F - 23.9 °F 84% 30.13 in 10.0 mi Calm Calm - N/A   Mostly Cloudy